Temperature
19 19 20 19 19 19 19 19 19 19 19 19 19 19 19 19 19 19 19 19 19 19 19 19 19 19 19 19 19 19 19 19 19 19 19 19 19 19 19 19 18 18 19
19 19 20 19 19 19 19 19 19 19 19 19 19 19 19 19 19 19 19 19 19 19 19 19 19 19 19 19 19 19 19 19 19 19 19 19 19 19 19 19 19 18 19
20 19 20 19 19 19 19 19 19 19 19 19 19 19 19 19 19 19 19 19 19 19 19 19 19 19 19 19 19 19 19 19 19 19 19 18 19 19 19 19 19 19 19
19 19 19 19 19 19 19 19 19 19 19 19 19 19 19 19 19 19 19 19 19 19 19 19 19 19 19 19 19 19 19 19 19 19 18 18 18 19 19 19 19 19 18
19 19 19 20 20 20 19 19 19 19 19 19 19 19 19 19 19 19 19 19 19 19 18 18 18 18 18 19 19 19 19 19 19 18 18 18 18 19 19 18 18 18 18
19 18 19 20 20 20 20 19 19 19 19 19 19 19 19 19 19 19 19 19 19 19 18 18 18 18 18 18 18 18 18 18 18 18 18 18 18 19 18 18 18 18 18
19 18 19 20 20 20 20 19 19 19 19 19 19 19 19 19 19 19 19 19 19 18 18 18 18 18 18 18 18 18 18 18 18 18 18 18 18 18 18 18 18 18 18
19 19 18 20 20 20 19 19 19 19 19 19 19 19 19 19 19 19 19 19 18 18 18 18 18 18 18 18 18 18 18 18 18 17 17 18 18 18 18 18 18 18 18
19 19 18 19 19 19 19 19 19 19 19 19 19 19 19 19 19 19 19 19 18 18 18 18 18 18 18 18 18 18 18 18 17 17 17 17 18 18 18 18 18 18 18
19 19 19 18 18 18 18 19 19 19 19 19 19 19 19 18 18 18 18 18 18 18 18 18 18 18 18 18 18 18 18 18 17 17 17 17 18 18 18 18 18 18 18
18 18 19 19 18 18 18 18 19 19 19 18 18 18 18 18 17 18 17 18 18 18 18 18 18 18 18 18 18 18 18 17 17 17 17 18 18 18 18 18 18 18 18
18 18 18 18 18 18 18 18 18 18 18 18 18 18 18 17 17 17 17 18 18 18 18 18 18 18 18 17 18 18 18 17 18 17 17 18 18 18 18 18 18 18 18
18 18 18 18 18 18 18 18 18 18 18 18 18 17 17 17 17 17 17 17 17 18 17 18 18 17 17 18 18 18 18 18 18 18 17 18 18 17 17 17 17 17 18
17 18 18 18 18 18 18 18 18 18 18 18 18 18 17 17 17 17 17 17 17 17 17 17 17 17 17 18 18 18 18 18 18 18 17 18 18 17 17 17 17 17 17
17 17 18 18 18 18 18 18 18 18 18 18 18 18 17 17 17 17 17 17 17 17 17 17 17 18 18 18 18 19 19 18 18 18 17 18 17 17 17 17 17 17 18
16 16 17 17 18 18 18 18 18 18 18 18 18 18 17 17 17 17 17 17 17 17 17 17 18 18 18 18 18 18 18 18 18 18 17 17 17 17 17 17 17 17 17
16 16 16 17 17 18 18 18 18 18 18 18 18 18 17 17 17 17 17 17 17 17 17 17 18 18 18 18 18 18 18 18 18 18 17 17 17 17 17 17 17 17 17
15 16 16 16 17 17 18 18 18 18 18 18 18 18 18 17 17 17 17 17 17 17 17 17 17 17 18 18 19 18 18 18 18 18 18 17 17 17 17 17 17 17 17
15 15 15 16 16 17 17 18 18 18 18 18 18 18 18 17 17 17 17 17 17 17 17 17 17 18 18 18 18 18 19 18 18 18 18 18 17 17 17 17 17 17 17
14 14 14 15 16 16 16 17 17 18 18 18 18 18 18 18 17 17 17 17 17 17 17 17 17 17 18 18 18 18 18 18 18 18 18 18 18 17 17 16 17 17 17
14 14 14 14 15 15 16 16 17 17 17 17 17 17 18 17 17 17 17 17 17 17 17 17 17 17 17 18 18 18 18 18 18 18 18 18 18 18 17 17 17 16 17
13 13 13 14 14 14 15 15 16 16 16 17 17 17 17 17 17 17 17 17 17 17 17 17 17 17 17 17 18 18 18 18 17 18 18 17 18 18 17 17 17 17 17
12 13 13 13 13 14 14 14 15 15 16 16 16 17 17 17 17 17 17 17 17 17 17 17 17 17 17 17 17 18 18 18 18 18 18 18 18 18 17 17 17 17 17
12 12 12 12 13 13 13 14 14 15 15 15 15 16 16 16 17 17 17 17 17 17 17 17 17 17 17 17 17 17 18 18 18 18 17 18 18 17 17 17 17 17 17
11 12 12 12 12 13 13 13 14 14 14 15 15 15 16 16 16 16 17 17 17 17 17 17 17 17 17 17 17 17 17 17 17 17 17 17 17 17 17 17 17 17 17
11 12 12 12 12 13 13 13 13 14 14 14 15 15 15 15 16 16 16 16 16 16 16 17 16 17 17 16 16 16 16 16 16 17 16 16 16 17 16 16 16 16 16
Wind_Speed
12 14 15 13 13 12 12 12 12 12 12 11 11 11 10 9 8 7 6 6 5 5 4 4 4 5 6 6 6 6 7 7 7 7 8 8 7 7 8 6 4 9 9
15 16 16 15 14 13 13 13 12 12 11 11 10 10 9 9 8 7 6 5 5 4 4 4 4 5 6 6 6 6 7 7 7 7 7 8 8 8 7 6 6 9 8
16 16 17 16 15 14 13 13 12 12 11 11 10 9 9 8 8 7 6 5 4 4 4 4 5 5 5 5 6 6 6 6 7 5 2 7 9 8 8 8 8 8 7
16 16 16 16 15 14 13 12 12 11 11 10 10 9 9 8 7 7 6 5 5 4 4 4 4 5 5 5 5 5 5 6 6 2 3 6 8 9 7 7 7 7 6
15 14 16 16 14 13 13 12 12 11 10 10 9 9 9 8 7 6 6 5 5 4 4 3 4 4 5 5 5 4 5 5 4 1 6 6 7 8 7 7 7 7 7
13 13 15 14 14 13 12 12 12 11 10 10 10 9 8 8 7 6 6 5 5 4 4 3 3 4 4 4 4 4 5 5 4 4 4 4 7 7 6 6 7 7 7
13 12 14 13 13 12 12 11 11 11 11 10 10 9 8 8 7 6 6 5 5 5 4 3 3 4 4 4 4 4 5 4 3 4 3 4 7 6 5 6 7 7 7
11 11 13 13 11 11 11 11 11 11 11 10 10 9 8 8 7 6 6 5 5 4 4 4 4 4 4 4 3 3 4 3 5 4 4 5 6 4 5 5 6 7 7
8 9 9 12 12 11 10 10 11 11 11 11 10 9 8 8 7 7 6 5 5 4 4 4 4 5 4 4 3 3 3 1 2 3 4 5 5 4 4 5 5 6 7
7 7 8 8 9 11 12 12 11 11 12 11 11 10 9 9 8 7 8 7 5 5 5 5 5 5 5 4 4 4 4 5 3 3 3 6 4 4 4 4 4 5 7
4 5 6 7 7 7 7 9 12 12 12 12 12 12 11 11 11 11 8 7 6 5 5 5 5 5 5 6 4 3 5 4 4 2 4 7 3 3 4 4 4 5 6
3 5 6 7 7 8 8 8 9 11 12 13 11 12 12 9 7 6 10 7 6 6 6 5 5 7 8 7 8 8 5 5 4 3 6 5 3 3 4 4 4 4 5
5 4 5 7 8 9 7 8 8 7 8 11 11 11 10 8 8 8 7 10 10 10 9 9 9 8 7 5 5 6 4 3 3 3 7 5 3 3 4 4 4 4 4
9 9 8 7 8 9 10 8 8 8 8 8 10 11 9 7 7 7 7 7 7 7 6 7 7 7 7 7 8 6 6 4 2 2 7 6 3 2 3 4 4 4 3
11 11 11 10 8 8 8 8 9 9 9 10 9 10 11 8 8 7 7 7 8 7 7 7 8 7 7 7 6 6 5 4 4 3 6 6 3 2 2 3 4 3 3
11 11 11 10 9 8 7 8 9 10 10 10 9 11 12 10 9 7 8 7 8 8 8 8 8 6 7 6 6 6 5 5 4 4 3 7 6 3 2 2 3 3 3
10 10 10 10 9 8 8 8 8 10 10 8 9 12 12 12 11 10 8 8 8 9 10 8 8 7 6 6 7 7 6 5 5 5 4 3 6 8 5 2 2 3 3
10 10 9 8 9 8 8 8 7 8 8 8 9 11 13 13 13 11 9 8 9 8 8 7 7 7 8 7 7 7 6 6 7 5 5 6 4 4 8 6 2 2 3
10 10 10 9 9 9 8 6 7 7 7 7 8 9 11 13 14 12 9 9 10 8 8 8 9 8 8 7 7 6 6 6 6 6 7 6 6 5 5 8 6 4 3
10 10 9 9 8 8 7 6 5 6 6 6 6 8 10 11 13 12 9 10 10 8 8 9 9 8 7 7 8 7 7 6 6 7 6 5 6 6 5 5 7 8 7
11 11 11 10 9 7 6 6 5 5 5 5 5 8 10 11 12 12 10 10 10 10 10 11 9 10 9 8 7 7 8 9 8 7 7 7 7 6 6 7 5 5 7
13 12 12 11 10 9 6 6 5 6 6 5 5 7 11 12 12 11 11 9 10 9 11 11 10 9 9 8 8 7 7 8 7 9 8 8 8 7 8 8 8 7 5
14 13 11 11 11 9 9 7 6 5 5 5 6 7 9 11 12 11 10 10 10 10 10 11 11 11 10 10 10 7 6 7 6 7 10 9 9 7 7 8 8 9 8
15 13 13 12 10 9 8 7 7 6 6 6 6 6 7 9 10 11 11 12 12 11 11 12 12 10 10 9 8 9 8 5 5 5 6 8 8 8 8 7 8 8 8
14 13 12 11 10 8 7 7 7 6 6 6 6 7 7 7 8 10 11 11 12 10 11 12 11 11 10 10 8 7 8 6 9 6 5 5 6 6 6 7 6 8 8
14 12 12 11 10 8 7 6 6 7 7 6 6 5 5 4 5 8 9 10 11 10 11 10 11 11 10 10 8 7 7 6 7 7 7 6 5 4 4 4 5 5 7
Wind_Direction
155 152 143 149 144 139 135 132 133 135 138 141 144 148 152 155 156 156 157 155 151 148 143 138 134 130 124 122 118 109 101 98 91 86 87 95 99 101 99 101 120 102 103
150 149 145 149 145 142 139 135 134 135 136 137 138 141 144 145 146 145 146 146 144 143 139 136 133 130 127 126 119 109 102 97 90 88 98 106 95 94 99 89 50 89 109
147 146 149 151 148 145 142 140 138 137 137 137 137 138 140 141 141 141 140 139 138 137 136 133 131 130 127 122 117 113 107 103 99 100 145 104 100 91 92 92 88 96 105
148 150 150 149 150 147 146 144 141 140 141 140 139 140 140 141 141 141 141 140 138 137 132 127 130 130 124 117 118 119 117 113 112 185 111 86 92 89 86 90 92 92 98
150 150 144 152 153 152 151 149 146 145 146 145 144 144 144 144 144 143 140 137 135 134 129 126 129 129 126 121 121 126 129 124 130 190 81 80 82 84 82 82 87 89 90
152 152 148 157 157 157 157 155 154 154 154 154 152 152 151 150 150 149 147 142 136 134 128 118 122 130 131 127 126 127 129 136 174 102 95 93 90 86 85 84 83 85 88
158 157 154 161 162 164 164 163 161 162 163 162 161 161 159 157 153 151 149 144 139 135 129 122 123 125 127 124 126 130 127 153 139 110 106 91 87 89 87 88 86 86 87
163 164 159 163 171 172 172 172 172 172 171 170 169 169 169 166 162 159 155 149 140 131 124 120 120 122 122 125 130 131 140 214 140 127 113 95 90 99 95 91 88 89 90
171 175 178 175 180 183 186 187 186 183 181 180 179 178 178 176 172 170 166 163 154 144 134 128 123 121 119 123 129 131 134 197 144 132 122 98 97 104 99 92 89 87 89
185 191 196 196 196 194 193 195 200 195 191 189 187 188 188 185 184 182 187 170 170 163 149 138 130 124 121 120 122 128 152 194 148 147 113 96 101 107 104 98 92 89 87
210 219 220 218 218 224 221 195 203 204 201 198 197 195 202 206 197 192 182 157 179 174 163 152 143 137 146 141 132 155 202 181 144 134 91 87 101 112 109 103 96 95 90
251 247 244 243 237 232 233 227 223 215 207 210 211 201 211 215 213 214 140 177 193 186 179 170 163 179 210 178 161 194 190 172 172 149 102 98 106 120 121 112 103 99 95
347 324 284 267 254 249 240 239 236 231 225 224 222 216 220 218 212 214 194 188 197 199 199 175 200 203 203 188 190 187 170 186 172 153 112 110 112 119 122 116 108 105 100
11 360 342 315 284 261 251 247 244 240 232 231 228 227 221 222 226 218 215 210 204 205 208 212 216 200 206 199 200 192 176 195 168 142 111 115 123 132 133 126 118 113 107
8 359 353 344 325 300 274 259 252 247 245 239 236 239 229 226 229 223 219 213 219 214 204 214 218 204 211 209 210 211 194 186 181 161 130 132 138 152 152 149 142 135 126
2 354 348 344 335 320 295 271 260 256 249 252 244 241 239 233 235 230 230 218 221 219 216 213 213 205 212 210 212 212 216 199 199 177 156 151 159 162 177 182 170 164 165
354 348 345 340 341 331 315 294 276 264 256 248 247 248 245 240 238 234 234 226 219 214 214 215 208 211 213 207 211 212 209 215 217 194 168 174 163 167 180 206 202 187 184
346 343 340 338 338 333 322 306 289 274 265 252 248 249 251 245 241 239 235 233 227 217 213 207 213 209 208 211 210 201 203 192 218 205 194 186 175 167 171 176 199 204 197
340 337 336 336 333 328 319 303 291 281 266 256 251 249 251 249 246 238 235 232 224 215 212 211 210 213 214 213 214 208 214 204 207 208 214 196 172 185 171 155 181 186 179
340 334 331 328 326 324 318 309 293 276 265 253 251 254 254 252 250 242 234 233 227 217 212 213 209 215 223 217 221 214 215 214 214 216 224 210 206 193 185 172 184 177 179
342 338 332 327 325 323 318 313 306 289 276 264 249 249 251 250 248 241 235 229 223 219 216 213 211 212 217 216 219 217 218 222 225 205 223 222 216 203 202 195 200 185 173
340 337 330 326 324 322 313 303 289 288 280 267 257 248 243 244 243 239 236 230 225 222 221 217 214 215 213 211 215 217 221 217 223 226 220 227 232 205 220 217 203 197 202
340 335 329 323 318 316 313 304 299 290 276 264 254 249 246 242 239 234 232 232 229 222 219 216 212 214 213 213 218 214 219 223 208 212 220 222 229 228 225 231 227 211 202
341 336 330 324 318 315 312 303 300 291 286 280 271 260 255 245 240 234 231 230 227 224 222 219 215 216 215 214 217 228 239 238 216 205 208 221 222 226 231 225 234 235 219
344 340 333 329 325 322 317 309 300 294 291 287 278 267 260 246 235 230 227 228 226 223 225 222 217 215 215 216 211 211 225 233 238 235 222 210 208 217 225 230 230 236 234
348 347 345 338 336 334 328 321 312 309 309 302 287 270 257 247 236 229 224 223 222 221 220 218 214 213 215 219 215 212 210 214 224 228 233 231 225 215 218 228 239 237 236
Height
1546 1547 1548 1550 1552 1554 1555 1557 1558 1559 1560 1561 1562 1563 1563 1564 1565 1565 1565 1566 1566 1566 1567 1567 1567 1567 1567 1567 1567 1566 1566 1565 1565 1564 1564 1563 1562 1562 1561 1561 1561 1562 1561
1546 1548 1549 1552 1553 1555 1556 1558 1559 1560 1561 1562 1563 1563 1564 1565 1565 1566 1566 1566 1567 1567 1567 1567 1567 1567 1568 1568 1568 1568 1567 1567 1567 1566 1565 1565 1564 1564 1563 1563 1562 1563 1562
1547 1549 1551 1553 1555 1556 1558 1559 1560 1561 1562 1563 1563 1564 1565 1565 1566 1566 1567 1567 1567 1568 1568 1568 1568 1568 1568 1569 1569 1569 1569 1568 1568 1567 1567 1568 1566 1565 1565 1564 1564 1564 1563
1549 1551 1553 1554 1556 1558 1559 1560 1561 1562 1563 1564 1564 1565 1565 1566 1566 1567 1567 1567 1568 1568 1568 1568 1568 1569 1569 1569 1569 1570 1570 1570 1569 1569 1570 1569 1569 1567 1566 1566 1566 1565 1565
1551 1553 1554 1556 1557 1559 1560 1561 1562 1563 1564 1564 1565 1566 1566 1566 1567 1567 1567 1568 1568 1568 1568 1568 1569 1569 1569 1570 1570 1570 1571 1571 1570 1570 1570 1570 1569 1568 1568 1568 1567 1567 1566
1553 1555 1555 1557 1558 1560 1561 1562 1563 1563 1564 1565 1565 1566 1566 1567 1567 1567 1568 1568 1568 1568 1568 1568 1569 1569 1569 1570 1570 1571 1571 1571 1571 1572 1571 1571 1571 1570 1569 1569 1569 1568 1568
1555 1556 1557 1558 1559 1560 1561 1562 1563 1564 1564 1565 1565 1566 1567 1567 1567 1567 1567 1568 1568 1568 1568 1568 1568 1569 1569 1570 1571 1571 1572 1572 1573 1572 1572 1572 1571 1571 1571 1570 1570 1569 1569
1557 1558 1558 1558 1559 1561 1562 1562 1563 1564 1564 1565 1565 1566 1566 1567 1567 1567 1567 1567 1567 1567 1568 1568 1568 1569 1569 1570 1571 1572 1572 1572 1573 1573 1573 1573 1572 1572 1572 1571 1571 1570 1570
1558 1559 1560 1560 1559 1560 1561 1562 1562 1563 1564 1564 1565 1565 1566 1566 1566 1566 1566 1566 1567 1567 1567 1567 1568 1568 1569 1570 1571 1572 1572 1573 1574 1574 1574 1573 1572 1572 1572 1572 1572 1572 1571
1558 1559 1560 1561 1561 1561 1561 1561 1561 1562 1563 1563 1564 1564 1565 1565 1565 1565 1566 1566 1566 1566 1566 1567 1567 1568 1569 1570 1571 1572 1573 1573 1575 1575 1575 1574 1573 1573 1572 1572 1572 1572 1572
1558 1559 1560 1560 1560 1561 1561 1560 1560 1561 1561 1562 1562 1563 1564 1565 1566 1565 1565 1565 1565 1565 1566 1566 1567 1568 1569 1570 1571 1572 1573 1575 1575 1576 1575 1573 1573 1572 1572 1573 1573 1573 1573
1558 1558 1559 1559 1559 1559 1559 1559 1559 1559 1560 1560 1561 1562 1563 1564 1565 1566 1564 1564 1564 1564 1565 1566 1567 1568 1570 1572 1571 1572 1574 1575 1575 1576 1574 1573 1572 1572 1572 1572 1573 1573 1573
1557 1557 1557 1557 1558 1558 1557 1557 1557 1558 1558 1559 1560 1560 1561 1562 1563 1563 1564 1563 1564 1564 1566 1565 1567 1569 1571 1572 1573 1574 1574 1575 1575 1575 1574 1572 1572 1572 1572 1572 1573 1573 1573
1555 1554 1554 1555 1555 1555 1555 1555 1555 1555 1555 1556 1557 1558 1559 1560 1561 1563 1563 1564 1564 1564 1565 1566 1567 1569 1570 1571 1572 1573 1574 1575 1575 1575 1573 1572 1571 1571 1571 1572 1572 1573 1573
1553 1552 1552 1551 1551 1552 1552 1552 1552 1553 1553 1554 1554 1555 1556 1557 1558 1560 1561 1561 1562 1563 1563 1564 1566 1568 1569 1570 1571 1573 1573 1574 1574 1574 1573 1571 1571 1571 1571 1571 1572 1572 1573
1552 1550 1549 1549 1548 1548 1548 1548 1549 1549 1550 1550 1551 1552 1553 1554 1555 1557 1558 1559 1560 1561 1562 1563 1565 1566 1567 1569 1570 1571 1572 1573 1573 1573 1573 1571 1570 1570 1570 1570 1571 1572 1572
1551 1549 1547 1545 1545 1544 1544 1544 1544 1545 1546 1546 1547 1549 1550 1551 1552 1553 1555 1556 1557 1558 1560 1561 1563 1564 1566 1567 1568 1569 1570 1571 1572 1572 1572 1572 1571 1570 1570 1570 1570 1571 1571
1550 1547 1545 1543 1542 1541 1540 1540 1540 1540 1541 1542 1543 1544 1546 1547 1548 1549 1551 1553 1554 1556 1557 1559 1561 1562 1564 1565 1567 1568 1569 1569 1570 1571 1571 1571 1571 1571 1570 1570 1570 1570 1571
1548 1546 1543 1541 1539 1538 1536 1535 1535 1536 1536 1537 1539 1540 1541 1542 1544 1545 1547 1549 1551 1552 1554 1556 1558 1560 1562 1563 1565 1566 1567 1568 1569 1569 1570 1571 1571 1570 1571 1569 1569 1570 1570
1547 1544 1541 1539 1536 1535 1533 1532 1531 1531 1531 1531 1533 1534 1536 1537 1539 1541 1542 1544 1546 1548 1550 1552 1555 1556 1559 1560 1562 1564 1565 1566 1566 1567 1568 1569 1569 1570 1570 1570 1570 1569 1569
1545 1542 1539 1536 1534 1532 1530 1528 1527 1526 1526 1526 1527 1528 1530 1532 1534 1535 1537 1539 1541 1543 1545 1548 1550 1553 1555 1557 1560 1561 1562 1563 1564 1565 1566 1567 1568 1568 1569 1569 1570 1570 1569
1542 1539 1536 1533 1531 1528 1526 1525 1523 1522 1521 1521 1522 1523 1524 1526 1528 1530 1532 1534 1536 1538 1541 1543 1546 1548 1551 1553 1556 1557 1558 1560 1560 1561 1562 1564 1565 1566 1567 1568 1569 1568 1569
1540 1536 1533 1530 1527 1525 1523 1521 1520 1518 1517 1517 1517 1518 1519 1520 1522 1524 1526 1528 1530 1533 1535 1538 1541 1543 1546 1548 1551 1553 1554 1555 1556 1558 1559 1560 1561 1563 1564 1565 1566 1567 1568
1538 1534 1530 1527 1524 1522 1520 1518 1516 1515 1514 1514 1513 1513 1514 1515 1516 1518 1520 1523 1525 1528 1530 1533 1535 1538 1541 1543 1545 1548 1550 1551 1553 1554 1555 1556 1557 1559 1560 1561 1563 1564 1565
1535 1531 1527 1524 1521 1519 1517 1515 1513 1512 1511 1510 1509 1509 1509 1510 1510 1512 1514 1517 1520 1522 1524 1527 1530 1532 1535 1538 1540 1543 1545 1547 1549 1550 1551 1553 1554 1555 1556 1558 1559 1560 1562
1534 1529 1525 1522 1519 1516 1514 1512 1510 1509 1507 1506 1505 1505 1505 1505 1506 1507 1509 1511 1514 1516 1518 1521 1524 1527 1529 1532 1535 1537 1540 1542 1543 1546 1547 1548 1550 1551 1552 1553 1555 1556 1557